FDX1222 KSAN-KMEM

Flight info

Callsign FDX1222
Flight time N/A
Altitude 41000
Route ZZOOO4 TGOLD PXR KA24Q KA27S KA30U KA33Y NOSEW IRW LITTR HOBRK4
Aircraft MD11/H-SDE1E2E3FGHIJ2J3J4J5M1RWXY/LB1D1

Departure

Time 2026-04-23 20:13
Airport San Diego International Airport (KSAN)

Arrival

Time N/A
Airport Memphis International Airport (KMEM)
Time Latitude Longitude Altitude Speed Heading
2026-04-23 19:50 32.73670 -117.18503 32 ft 0 kts 355°
2026-04-23 20:03 32.73662 -117.18502 47 ft 3 kts 356°
2026-04-23 20:04 32.73642 -117.18501 18 ft 3 kts
2026-04-23 20:04 32.73623 -117.18504 26 ft 3 kts 22°
2026-04-23 20:04 32.73608 -117.18513 24 ft 3 kts 51°
2026-04-23 20:04 32.73601 -117.18521 27 ft 3 kts 96°
2026-04-23 20:05 32.73598 -117.18523 26 ft 2 kts 140°
2026-04-23 20:05 32.73599 -117.18524 26 ft 1 kts 143°
2026-04-23 20:07 32.73589 -117.18515 24 ft 3 kts 143°
2026-04-23 20:08 32.73563 -117.18492 26 ft 6 kts 143°
2026-04-23 20:08 32.73523 -117.18457 27 ft 8 kts 143°
2026-04-23 20:08 32.73475 -117.18415 28 ft 9 kts 144°
2026-04-23 20:08 32.73428 -117.18391 29 ft 4 kts 166°
2026-04-23 20:09 32.73418 -117.18392 27 ft 1 kts 185°
2026-04-23 20:09 32.73405 -117.18395 28 ft 3 kts 190°
2026-04-23 20:09 32.73380 -117.18401 30 ft 6 kts 188°
2026-04-23 20:09 32.73330 -117.18370 29 ft 11 kts 131°
2026-04-23 20:10 32.73311 -117.18306 28 ft 15 kts 105°
2026-04-23 20:10 32.73268 -117.18125 28 ft 16 kts 107°
2026-04-23 20:10 32.73233 -117.17987 27 ft 19 kts 106°
2026-04-23 20:10 32.73196 -117.17830 27 ft 20 kts 106°
2026-04-23 20:11 32.73160 -117.17682 28 ft 13 kts 106°
2026-04-23 20:11 32.73128 -117.17584 27 ft 10 kts 123°
2026-04-23 20:11 32.73101 -117.17556 27 ft 2 kts 150°
2026-04-23 20:11 32.73082 -117.17542 28 ft 5 kts 150°
2026-04-23 20:12 32.73045 -117.17522 29 ft 5 kts 163°
2026-04-23 20:12 32.73016 -117.17530 30 ft 5 kts 212°
2026-04-23 20:12 32.73010 -117.17551 30 ft 3 kts 264°
2026-04-23 20:12 32.73025 -117.17610 28 ft 35 kts 287°
2026-04-23 20:13 32.73219 -117.18403 209 ft 145 kts 285°
2026-04-23 20:13 32.73545 -117.19739 1114 ft 182 kts 284°
2026-04-23 20:13 32.73833 -117.21330 2275 ft 203 kts 282°
2026-04-23 20:13 32.74112 -117.23064 3406 ft 205 kts 284°
2026-04-23 20:14 32.74360 -117.24275 5997 ft 122 kts 287°
2026-04-23 20:14 32.74631 -117.25263 7462 ft 134 kts 288°
2026-04-23 20:14 32.74959 -117.26436 8324 ft 172 kts 287°
2026-04-23 20:14 32.75386 -117.28010 8547 ft 224 kts 287°
2026-04-23 20:15 32.75870 -117.29842 8659 ft 237 kts 287°
2026-04-23 20:15 32.76291 -117.31751 8794 ft 240 kts 278°
2026-04-23 20:15 32.76158 -117.33730 8919 ft 245 kts 252°
2026-04-23 20:15 32.75174 -117.35395 9047 ft 254 kts 221°
2026-04-23 20:16 32.73523 -117.36174 9179 ft 265 kts 188°
2026-04-23 20:16 32.71718 -117.35648 9816 ft 276 kts 151°
2026-04-23 20:16 32.70252 -117.34182 10896 ft 283 kts 137°
2026-04-23 20:16 32.68908 -117.32431 12058 ft 291 kts 134°
2026-04-23 20:17 32.67571 -117.30596 13223 ft 297 kts 134°
2026-04-23 20:17 32.66207 -117.28719 14342 ft 304 kts 135°
2026-04-23 20:17 32.64803 -117.26802 15411 ft 311 kts 135°
2026-04-23 20:17 32.63489 -117.24716 16371 ft 326 kts 121°
2026-04-23 20:18 32.62669 -117.22025 16608 ft 369 kts 103°
2026-04-23 20:18 32.62280 -117.18858 16756 ft 407 kts 96°
2026-04-23 20:18 32.62043 -117.15389 17220 ft 431 kts 94°
2026-04-23 20:18 32.61905 -117.11805 18122 ft 439 kts 87°
2026-04-23 20:19 32.62379 -117.08221 19045 ft 443 kts 73°
2026-04-23 20:19 32.63352 -117.04728 19891 ft 449 kts 67°
2026-04-23 20:19 32.64534 -117.01275 20770 ft 455 kts 65°
2026-04-23 20:19 32.65775 -116.97797 21607 ft 462 kts 66°
2026-04-23 20:20 32.66667 -116.94098 22428 ft 471 kts 79°
2026-04-23 20:20 32.67047 -116.90209 23276 ft 478 kts 86°
2026-04-23 20:20 32.67161 -116.86233 24033 ft 485 kts 89°
2026-04-23 20:20 32.67174 -116.82203 24716 ft 492 kts 90°
2026-04-23 20:21 32.67175 -116.78121 25451 ft 497 kts 91°
2026-04-23 20:21 32.67155 -116.73988 26152 ft 503 kts 92°
2026-04-23 20:21 32.67090 -116.69809 26843 ft 509 kts 93°
2026-04-23 20:21 32.67008 -116.65591 27533 ft 514 kts 93°
2026-04-23 20:22 32.66925 -116.61383 28199 ft 519 kts 93°
2026-04-23 20:22 32.66844 -116.57080 28849 ft 525 kts 94°
2026-04-23 20:22 32.66767 -116.52728 29523 ft 530 kts 94°
2026-04-23 20:22 32.66691 -116.48336 30161 ft 535 kts 94°
2026-04-23 20:23 32.66638 -116.43899 30705 ft 541 kts 92°
2026-04-23 20:23 32.66789 -116.39411 31254 ft 547 kts 88°
2026-04-23 20:23 32.67127 -116.34908 31859 ft 549 kts 86°
2026-04-23 20:23 32.67560 -116.30403 32499 ft 549 kts 85°
2026-04-23 20:24 32.68020 -116.25905 33109 ft 549 kts 84°
2026-04-23 20:24 32.68474 -116.21407 33772 ft 548 kts 85°
2026-04-23 20:24 32.68909 -116.16917 34338 ft 548 kts 85°
2026-04-23 20:24 32.69326 -116.12414 34783 ft 550 kts 86°
2026-04-23 20:25 32.69732 -116.07900 35232 ft 551 kts 86°
2026-04-23 20:25 32.70133 -116.03361 35671 ft 553 kts 86°
2026-04-23 20:25 32.70538 -115.98809 36097 ft 555 kts 86°
2026-04-23 20:25 32.70951 -115.94248 36511 ft 557 kts 86°
2026-04-23 20:26 32.71369 -115.89671 36893 ft 559 kts 86°
2026-04-23 20:26 32.71792 -115.85070 37277 ft 561 kts 86°
2026-04-23 20:26 32.72215 -115.80464 37666 ft 563 kts 86°
2026-04-23 20:26 32.72639 -115.75837 38059 ft 564 kts 86°
2026-04-23 20:27 32.73061 -115.71199 38442 ft 566 kts 86°
2026-04-23 20:27 32.73483 -115.66535 38684 ft 570 kts 86°
2026-04-23 20:27 32.73906 -115.61841 38967 ft 572 kts 86°
2026-04-23 20:27 32.74328 -115.57138 39279 ft 572 kts 86°
2026-04-23 20:28 32.74743 -115.52445 39627 ft 571 kts 86°
2026-04-23 20:28 32.75041 -115.47749 39991 ft 569 kts 89°
2026-04-23 20:28 32.75208 -115.43116 40347 ft 567 kts 91°
2026-04-23 20:28 32.75307 -115.38445 40709 ft 565 kts 91°
2026-04-23 20:29 32.75382 -115.33769 40922 ft 568 kts 92°
2026-04-23 20:29 32.75545 -115.24331 40975 ft 570 kts 91°
2026-04-23 20:30 32.75747 -115.14949 40976 ft 567 kts 91°
2026-04-23 20:30 32.76059 -115.00905 40970 ft 567 kts 91°
2026-04-23 20:31 32.76256 -114.91510 40962 ft 569 kts 91°
2026-04-23 20:31 32.76445 -114.82116 40964 ft 569 kts 91°
2026-04-23 20:32 32.76627 -114.72727 40963 ft 569 kts 91°
2026-04-23 20:32 32.76802 -114.63331 40960 ft 568 kts 91°
2026-04-23 20:33 32.76935 -114.54017 40960 ft 568 kts 92°
2026-04-23 20:33 32.77050 -114.44558 40951 ft 569 kts 92°
2026-04-23 20:34 32.77171 -114.35225 40914 ft 568 kts 92°
2026-04-23 20:34 32.77293 -114.25808 40944 ft 571 kts 92°
2026-04-23 20:35 32.77408 -114.16370 40946 ft 571 kts 92°
2026-04-23 20:35 32.77514 -114.06926 40952 ft 571 kts 92°
2026-04-23 20:36 32.77668 -113.97484 40941 ft 573 kts 88°
2026-04-23 20:36 32.78687 -113.88076 40942 ft 575 kts 81°
2026-04-23 20:37 32.79895 -113.80308 40942 ft 575 kts 80°
2026-04-23 20:37 32.81373 -113.70964 40930 ft 575 kts 77°
2026-04-23 20:38 32.83737 -113.61872 40937 ft 576 kts 68°
2026-04-23 20:38 32.86694 -113.53015 40930 ft 576 kts 66°
2026-04-23 20:39 32.89645 -113.44160 40932 ft 576 kts 67°
2026-04-23 20:39 32.92498 -113.35246 40929 ft 576 kts 68°
2026-04-23 20:40 32.95307 -113.26319 40932 ft 576 kts 68°
2026-04-23 20:40 32.98115 -113.17375 40929 ft 576 kts 68°
2026-04-23 20:41 33.00921 -113.08437 40922 ft 576 kts 68°
2026-04-23 20:41 33.03710 -112.99532 40934 ft 578 kts 68°
2026-04-23 20:42 33.06512 -112.90558 40943 ft 578 kts 68°
2026-04-23 20:42 33.09297 -112.81610 40918 ft 574 kts 68°
2026-04-23 20:43 33.12186 -112.72748 40926 ft 573 kts 64°
2026-04-23 20:43 33.15612 -112.64166 40929 ft 572 kts 60°
2026-04-23 20:44 33.19200 -112.55691 40925 ft 572 kts 60°
2026-04-23 20:44 33.22751 -112.47185 40942 ft 572 kts 60°
2026-04-23 20:45 33.26253 -112.38658 40946 ft 572 kts 61°
2026-04-23 20:45 33.29743 -112.30107 40950 ft 572 kts 61°
2026-04-23 20:46 33.33227 -112.21560 40950 ft 572 kts 61°
2026-04-23 20:46 33.36687 -112.13058 40924 ft 572 kts 61°
2026-04-23 20:47 33.40162 -112.04500 40926 ft 572 kts 61°
2026-04-23 20:47 33.43634 -111.95923 40930 ft 572 kts 62°
2026-04-23 20:48 33.46680 -111.87101 40944 ft 575 kts 68°
2026-04-23 20:48 33.49289 -111.78037 40960 ft 575 kts 70°
2026-04-23 20:49 33.51864 -111.68969 40949 ft 575 kts 69°
2026-04-23 20:49 33.54498 -111.59909 40945 ft 575 kts 69°
2026-04-23 20:50 33.57154 -111.50854 40936 ft 575 kts 69°
2026-04-23 20:50 33.59793 -111.41827 40904 ft 572 kts 69°
2026-04-23 20:51 33.62414 -111.32820 40908 ft 572 kts 69°
2026-04-23 20:51 33.65032 -111.23793 40905 ft 571 kts 69°
2026-04-23 20:52 33.67636 -111.14776 40911 ft 573 kts 69°
2026-04-23 20:52 33.70226 -111.05785 40907 ft 573 kts 69°
2026-04-23 20:53 33.72820 -110.96722 40905 ft 574 kts 69°
2026-04-23 20:53 33.75391 -110.87645 40907 ft 573 kts 69°
2026-04-23 20:54 33.77966 -110.78582 40901 ft 573 kts 69°
2026-04-23 20:54 33.80546 -110.69514 40900 ft 573 kts 69°
2026-04-23 20:55 33.83121 -110.60440 40891 ft 573 kts 69°
2026-04-23 20:55 33.85690 -110.51357 40897 ft 573 kts 69°
2026-04-23 20:56 33.88247 -110.42281 40891 ft 573 kts 69°
2026-04-23 20:56 33.90801 -110.33188 40889 ft 573 kts 69°
2026-04-23 20:57 33.93348 -110.24088 40893 ft 573 kts 69°
2026-04-23 20:57 33.95886 -110.14995 40908 ft 573 kts 69°
2026-04-23 20:58 33.98403 -110.05939 40941 ft 572 kts 69°
2026-04-23 20:58 34.00864 -109.96831 40955 ft 571 kts 70°
2026-04-23 20:59 34.03224 -109.87688 40959 ft 571 kts 71°
2026-04-23 20:59 34.05571 -109.78527 40939 ft 572 kts 70°
2026-04-23 21:00 34.07928 -109.69356 40907 ft 572 kts 70°
2026-04-23 21:00 34.10287 -109.60174 40963 ft 573 kts 70°
2026-04-23 21:01 34.12638 -109.50991 41021 ft 572 kts 70°
2026-04-23 21:01 34.14977 -109.41820 41097 ft 573 kts 70°
2026-04-23 21:02 34.17320 -109.32599 41093 ft 575 kts 70°
2026-04-23 21:02 34.19654 -109.23379 41090 ft 574 kts 71°
2026-04-23 21:03 34.21984 -109.14145 41018 ft 574 kts 71°
2026-04-23 21:03 34.24303 -109.04910 40950 ft 574 kts 71°
2026-04-23 21:04 34.26573 -108.95735 40869 ft 573 kts 71°
2026-04-23 21:04 34.28864 -108.86491 40834 ft 574 kts 71°
2026-04-23 21:05 34.31158 -108.77261 40845 ft 573 kts 70°
2026-04-23 21:05 34.33448 -108.68029 40823 ft 573 kts 71°
2026-04-23 21:06 34.35732 -108.58782 40825 ft 573 kts 71°
2026-04-23 21:06 34.38009 -108.49529 40818 ft 573 kts 71°
2026-04-23 21:07 34.40277 -108.40279 40807 ft 573 kts 71°
2026-04-23 21:07 34.42539 -108.31021 40806 ft 573 kts 71°
2026-04-23 21:08 34.44792 -108.21766 40810 ft 573 kts 71°